weather.gov     
National Weather Service

Terminal Aerodrome Forecast
NWS Homepage
This page is being discontinued on March 12, 2014.
The same data is available at this site. Please update your bookmarks.
Thank you, and we apologize for the inconvenience.
Please send an email to SR-SRH.Webmaster@noaa.gov with any concerns.


Current Version
Previous Version:    01  02  03  04  05  06  07  08  09  10  11  12  13  14  15  16  17  18  19  20  21  22  23  
[Printable]
989
FTUS42 TJSJ 231700
TAFNCM
TAF
TNCM 231739Z 2318/2418 13012KT P6SM VCSH SCT020 SCT040
     FM232300 09008KT P6SM SCT019
     FM240430 07004KT P6SM VCSH SCT019 BKN035
     FM241400 12011KT P6SM SCT022 SCT040=


U.S. Dept. of Commerce
NOAA National Weather Service
1325 East West Highway
Silver Spring, MD 20910
E-mail: w-nws.webmaster@noaa.gov
Page last modified: May 16, 2007
NATIONAL WEATHER SERVICE: for Safety, for Work, for Fun - FOR LIFE